Location: Nairn
(57.5833°N, 3.8667°W)
Time: 23:21:25
(UTC+00:00)

S-56A Canister/Altair - Pass Details

Date: 10 October 2022
Orbit: 638 x 2494 km, 38.9° (Epoch: 09 December)

Event Time Altitude Azimuth Distance (km) Brightness Sun altitude
Exits shadow 03:53:42 17° 196° (SSW) 3,054 10.2 -22.4°
Drops below altitude 10° 03:57:03 10° 172° (S) 3,286 10.6 -22.0°
Sets 04:00:33 0° 154° (SSE) 3,946 11.2 -21.6°
